Regional Weather Roundup
Issued by NWS Wakefield, VA

Home | Current Version | Previous Version | Graphics & Text | Print | Product List | Glossary On
Versions: 1 2 3 4 5 6 7 8 9 10 11 12 13 14 15 16 17 18 19 20 21 22 23 24 25 26 27 28 29 30 31 32 33 34 35 36 37 38 39 40 41 42 43 44 45 46 47 48 49 50
293
ASUS41 KAKQ 260114
RWRAKQ

REGIONAL WEATHER ROUNDUP
NATIONAL WEATHER SERVICE WAKEFIELD VA
800 PM EST SAT FEB 25 2017

Note: "fair" indicates few or no clouds below 12,000 feet with no
significant weather and/or obstructions to visibility. * = Denotes
station may not report precipitation (e.g., rain,snow,etc.),
thunder or fog.

VAZ042-051-052>054-056-260200-
NORTHERN VIRGINIA

CITY           SKY/WX    TMP DP  RH WIND       PRES   REMARKS
WASH NATIONAL  PTCLDY    55  31  39 NW14      29.66R
DULLES         PTCLDY    51  26  37 NW20G35   29.66R
FORT BELVOIR   PTCLDY    55  31  41 NW14G21   29.64R
QUANTICO       CLOUDY    56  35  45 NW12G28   29.67R
FREDERICKSBRG* CLOUDY    59  32  36 W10G16    29.66R
STAFFORD*      CLOUDY    54  36  49 NW6       29.71R
WARRENTON      CLOUDY    53  23  30 NW17G24   29.66R
CULPEPER*      CLEAR     55  27  34 NW7G18    29.68R
MANASSAS*      PTCLDY    52  30  43 NW15      29.67R
LEESBURG*      CLEAR     50  32  50 MISG      29.69R
WINCHESTER     CLEAR     45  23  42 W22G28    29.71R
FRONT ROYAL*   CLEAR     48  23  37 W9G25     29.70R
LURAY*         NOT AVBL
$$

VAZ048-049-060>072-079>083-260200-
CENTRAL AND SOUTH CENTRAL VIRGINIA

CITY           SKY/WX    TMP DP  RH WIND       PRES   REMARKS
RICHMOND       MOCLDY    59  36  42 NW20G26   29.64R
CHESTERFIELD*  CLOUDY    59  27  29 W16G28    29.67R
PETERSBURG*    CLOUDY    58  32  36 NW9G17    29.68R
HANOVER        CLOUDY    59  30  33 W15G25    29.67R
TAPPAHANNOCK*  CLOUDY    58  42  56 N6        29.65R
QUINTON*       CLOUDY    60  39  46 W15G22    29.65
CHARLOTTSVILLE CLEAR     54  22  28 W10G21    29.69R
GORDONSVILLE*  NOT AVBL
ORANGE*        CLEAR     52  27  37 W17G29    29.68R
LOUISA*        CLOUDY    57  28  33 W12G25    29.66R
BUMPASS*       NOT AVBL
FARMVILLE*     PTCLDY    56  29  34 CALM      29.68R
CREWE*         MOCLDY    57  35  43 NW8       29.68R
FORT PICKETT*  NOT AVBL
CHASE CITY*    FAIR      57  31  37 NW8       29.70R
CLARKSVILLE*   MOCLDY    59  32  36 W7G20     29.69R
SOUTH HILL*    PTCLDY    57  39  50 NW7       29.74R
LAWRENCEVILLE* NOT AVBL
EMPORIA*       CLOUDY    61  41  48 W6        29.69R
$$

VAZ088>098-260200-
SOUTHEAST VIRGINIA

CITY           SKY/WX    TMP DP  RH WIND       PRES   REMARKS
NORFOLK        CLOUDY    64  52  64 NW9G21    29.62R
VIRGINIA BEACH CLOUDY    63  51  65 NW13G24   29.61R
NORFOLK NAVAL  MOCLDY    63  51  65 NW13      29.62R
WEST POINT*    CLOUDY    61  41  49 NW6       29.65R
SALUDA*        CLOUDY    56  50  79 N10       29.63R
NEWPORT NEWS   LGT RAIN  61  52  72 NW10      29.63R
LANGLEY AFB    MOCLDY    61  54  77 NW9       29.62R
FORT EUSTIS    CLOUDY    59  49  69 W9        29.61R
WILLIAMSBURG*  MOCLDY    59  54  82 NW8       29.65R
HR EXEC AP*    NOT AVBL
FRANKLIN*      LGT RAIN  59  51  74 NW6       29.67R
US460-WAKEFLD  CLOUDY    59  46  62 VRB7      29.65R
$$

VAZ020-022-025-037-045-260200-
WEST CENTRAL AND SOUTHWEST VIRGINIA

CITY           SKY/WX    TMP DP  RH WIND       PRES   REMARKS
STAUNTON*      CLEAR     45  23  40 W17       29.77R
WAYNESBORO*    CLEAR     46  20  35 W8G20     29.73R
HOT SPRINGS VA MOCLDY    32  19  59 W25G35    29.73R WCI  19
LYNCHBURG      CLEAR     51  22  31 W9G16     29.75R
DANVILLE       PTCLDY    56  23  27 W14G24    29.74R
SOUTH BOSTON*  NOT AVBL
MARTINSVILLE   CLEAR     51  20  29 W6        29.81R
ROANOKE        PTCLDY    48  21  34 NW17G26   29.83R
BLACKSBURG     CLEAR     41  24  51 W14G23    29.85R
DUBLIN*        CLEAR     42  20  42 W17G26    29.85R
MARION*        CLEAR     38  17  42 W26G35    29.86R
HILLSVILLE*    CLEAR     39  25  56 W21G29    29.81R
RICHLANDS*     FAIR      34  19  53 W3        29.90R
WISE*          CLEAR     34  18  51 W9        29.94R
ABINGDON*      CLEAR     40  19  43 N8        29.92R
$$

MDZ021>025-VAZ099-100-260200-
SOUTHERN MARYLAND AND THE DELMARVA PENINSULA

CITY           SKY/WX    TMP DP  RH WIND       PRES   REMARKS
PATUXENT RIVER MOCLDY    54  44  69 NW13      29.63R
BAY BRIDGE APT CLOUDY    52  41  66 NW7       29.65R
LEONARDTOWN    CLOUDY    52  41  66 NW3       29.66R
DOVER          MOCLDY    53  53 100 NW12      29.61S
GEORGETOWN     CLOUDY    54  50  86 NW6       29.64R
EASTON         PTCLDY    54  37  54 N12G18    29.67R
CAMBRIDGE      CLOUDY    54  45  71 N8        29.63R
SALISBURY      CLOUDY    53  48  83 N12       29.62R
OCEAN CITY     CLOUDY    53  48  83 N14G24    29.62R
WALLOPS ISLAND MOCLDY    53  49  86 NW15G24   29.61R
ACCOMACK*      MOCLDY    54  48  81 N14G22    29.62R
$$

NCZ012>017-030>032-260200-
NORTH CENTRAL AND EASTERN NORTH CAROLINA

CITY           SKY/WX    TMP DP  RH WIND       PRES   REMARKS
ROANOKE RAPIDS FAIR      59  45  58 NW7       29.67R
RALEIGH        PTCLDY    65  23  20 NW10G20   29.72R
ELIZABETH CITY CLEAR     67  60  78 SW17      29.59R
AHOSKIE*         N/A     60  44  55 NW5       29.67R
EDENTON*       CLEAR     69  62  78 SW12      29.61R
CURRITUCK*     CLEAR     68  60  76 SW10G18   29.58R
KILL DEVIL HLS NOT AVBL
MANTEO         CLEAR     65  60  83 SW16G23   29.61R
CAPE HATTERAS  CLEAR     70  61  73 SW22G33   29.65R HAZE
TARBORO*       NOT AVBL
GOLDSBORO      CLEAR     72  51  46 SW17G23   29.63R
WASHINGTON     CLEAR     68  61  77 SW7       29.63R
GREENVILLE     CLEAR     72  54  53 SW10      29.67R
NEW BERN       PTCLDY    66  59  78 SW10      29.67R
WILMINGTON     CLEAR     65  59  81 SW10      29.71R
$$

VAZ048-260200-
ELSEWHERE

CITY           SKY/WX    TMP DP  RH WIND       PRES   REMARKS
HARRISBURG PA  PTCLDY    48  32  53 W23G36    29.67R
BALTIMORE      PTCLDY    51  36  56 NW13      29.64R
ANNAPOLIS      PTCLDY    54  39  57 NW7       29.65R
ANDREWS AFB    MOCLDY    53  36  53 NW15      29.63R
PHILADELPHIA   LGT RAIN  52  45  77 NW8       29.63S
GREENSBORO     PTCLDY    55  24  30 NW20G29   29.76R
ROCKY MOUNT    CLOUDY    65  45  48 NW15G25   29.68R
$$

VAZ100-260200-
MARINE

STATION/POSITION TIME  TEMP    WIND        PRES    WAVE   SWELL
                       AIR SEA DIR/SP/G            HT/PER HT/PER
                 (UTC) (F)     (DEG/KT/KT) (MB)    (FT/S) (FT/S)
CAPE MAY NJ      0048   47 48  330/  9/ 12 1003.3R
LEWES DE         0048   50 45  320/ 12/ 13 1003.4R
OCEAN-CITY-INLET 0048   52 46  350/ 13/ 16 1003.3F
WACHAPREAGUE VA  0048   54 57  340/  8/ 17 1002.7R
THOMAS POINT MD  0000   55 45  320/ 13/ 15   N/A
GOOSES REEF MD   0100   49 44   20/ 12/ 14 1003.8    1/ 3
COVE POINT MD    0048   48      10/  5/ 11 1003.6S
SOLOMONS ISLAND  0048   55 45  320/  5/ 11   N/A
BISHOPS HEAD MD  0048   53 54  360/  5/ 10 1003.6R
PINEY POINT MD   0048          360/  8/  9   N/A
POTOMAC MD       0100   52 46  360/  8/ 10 1002.6    1
CAMBRIDGE MD     0048   52 46  330/  9/ 12 1002.6S
LEWISETTA VA     0048   53 51  350/  4/  6 1003.3R
RAPPAHANNOCK LGT 0048          350/ 20/ 21 1003.5R
YORK RVR RNG VA  0048   59     320/ 10/ 11 1002.4R
YORKTOWN VA      0048   58 50  320/ 11/ 12 1003.0R
JAMESTOWN VA     0100   58 54  310/ 10/ 12   N/A     0
DOMINION TERM VA 0048   58     320/  9/ 12 1002.6R
KIPTOPEKE VA     0048      51  340/ 15/ 21   N/A
CHES BAY BRIDGE  0048   57 48  290/ 12/ 15 1002.5R
CAPE HENRY VA    0048   61     280/ 11/ 16   N/A
WILLOUBY STN VA  0048   62     310/ 16/ 19 1003.6R
S CRANEY ISL VA  0048   62     300/  5/ 12 1002.6R
CAPE HENRY BUOY  0042      50                N/A     5/11   2/11
OFFSHORE WE BUOY 0051      49                N/A     6/11   2/11
64NM E OF VA BCH 0050   60 53  200/ 21/ 25 1000.8S   7/11   5/11
DUCK PIER NC     0048   67 50  200/ 19/ 23 1000.9F
44100 DUCK FRF   0035      51                N/A     5/11   2/11
44056 DUCK FRF   0030      51                N/A     4/11   2/11
OREGON INLET NC  0048          200/ 21/ 24 1002.6R
HATTERAS NC      0048   68 64  220/ 17/ 23 1003.9R
DIAMOND SHLS NC  0050   74 75  230/ 29/ 35 1003.6R   8/11   5/11
CAPE LOOKOUT NC  0000   69     220/ 15/ 22 1004.6R
$$




USA.gov is the U.S. government's official web portal to all federal, state and local government web resources and services.